WI1SKY Weather Reports


Display with metric or nautical units.
time (UTC)temp
F
wind
direction
speed
MPH
gust
MPH
rain 1hr
in
rain 24hr
in
rain mn
in
humidity
%
barometer
mb
20260504232025 64 316 9.0 17.0 0.00 0.00 0.00 33 997.7
20260504231929 63 295 12.0 17.0 0.00 0.00 0.00 31 998.2
20260504231549 63 298 11.0 15.0 0.00 0.00 0.00 32 998.1
20260504230957 64 306 11.0 17.0 0.00 0.00 0.00 33 997.9
20260504225917 64 302 8.0 13.0 0.00 0.00 0.00 35 997.7
20260504225421 64 284 8.0 12.0 0.00 0.00 0.00 33 997.6
20260504225215 64 311 9.0 13.0 0.00 0.00 0.00 34 997.6
20260504224947 64 290 8.0 11.0 0.00 0.00 0.00 34 997.6
20260504223910 64 302 11.0 15.0 0.00 0.00 0.00 32 997.5
20260504223637 65 298 8.0 14.0 0.00 0.00 0.00 33 997.4
20260504223443 65 284 11.0 15.0 0.00 0.00 0.00 32 997.4
20260504222404 65 296 8.0 11.0 0.00 0.00 0.00 35 997.4
20260504221904 65 294 9.0 13.0 0.00 0.00 0.00 35 997.3
20260504221405 65 299 10.0 14.0 0.00 0.00 0.00 35 997.3
20260504220909 65 307 11.0 15.0 0.00 0.00 0.00 33 997.2
20260504220409 66 303 9.0 15.0 0.00 0.00 0.00 34 997.2
20260504215904 66 305 7.0 13.0 0.00 0.00 0.00 36 997.3
20260504215405 66 284 6.0 10.0 0.00 0.00 0.00 38 997.2
20260504214906 66 263 7.0 12.0 0.00 0.00 0.00 36 997.2
20260504214643 66 302 7.0 13.0 0.00 0.00 0.00 36 997.0
20260504214435 66 296 7.0 12.0 0.00 0.00 0.00 39 997.0
20260504213400 66 288 8.0 14.0 0.00 0.00 0.00 37 997.1
20260504212902 66 285 9.0 14.0 0.00 0.00 0.00 36 997.0
20260504212407 66 288 10.0 13.0 0.00 0.00 0.00 36 996.9
20260504211903 67 288 12.0 18.0 0.00 0.00 0.00 34 996.9
20260504211406 67 321 12.0 18.0 0.00 0.00 0.00 35 996.9
20260504210901 67 306 11.0 18.0 0.00 0.00 0.00 36 997.0
20260504210402 67 295 12.0 18.0 0.00 0.00 0.00 35 996.9
20260504205907 67 294 11.0 18.0 0.00 0.00 0.00 33 997.0
20260504205637 68 295 10.0 16.0 0.00 0.00 0.00 36 996.9
20260504205433 67 300 10.0 16.0 0.00 0.00 0.00 33 996.9
20260504204402 68 303 10.0 15.0 0.00 0.00 0.00 34 996.6
20260504203903 68 292 11.0 16.0 0.00 0.00 0.00 37 996.7
20260504203405 69 303 11.0 16.0 0.00 0.00 0.00 36 996.6
20260504202902 69 305 10.0 15.0 0.00 0.00 0.00 35 996.5
20260504202408 69 301 11.0 15.0 0.00 0.00 0.00 37 996.4
20260504201908 70 316 12.0 17.0 0.00 0.00 0.00 34 996.4
20260504201408 70 304 13.0 17.0 0.00 0.00 0.00 32 996.4
20260504200906 71 318 11.0 17.0 0.00 0.00 0.00 33 996.3
20260504200407 71 302 10.0 14.0 0.00 0.00 0.00 35 996.2
20260504195907 71 311 11.0 16.0 0.00 0.00 0.00 33 996.1
20260504195403 72 314 12.0 16.0 0.00 0.00 0.00 34 996.1
20260504194900 72 314 11.0 14.0 0.00 0.00 0.00 33 996.0
20260504194403 72 306 10.0 14.0 0.00 0.00 0.00 33 996.0
20260504193905 73 302 9.0 15.0 0.00 0.00 0.00 34 996.0
20260504193401 73 281 8.0 15.0 0.00 0.00 0.00 35 996.0
20260504192901 74 308 6.0 15.0 0.00 0.00 0.00 35 995.8
20260504192401 74 261 6.0 13.0 0.00 0.00 0.00 34 995.8
20260504191901 74 262 7.0 12.0 0.00 0.00 0.00 34 995.7
20260504191406 74 297 7.0 12.0 0.00 0.00 0.00 33 995.7
20260504191137 75 232 7.0 12.0 0.00 0.00 0.00 35 995.7
20260504190940 75 270 7.0 11.0 0.00 0.00 0.00 34 995.8
20260504185901 74 279 8.0 14.0 0.00 0.00 0.00 36 995.7
20260504185406 74 299 8.0 14.0 0.00 0.00 0.00 34 995.7
20260504184902 74 303 7.0 15.0 0.00 0.00 0.00 37 995.7
20260504184405 74 298 8.0 17.0 0.00 0.00 0.00 35 995.7
20260504183904 73 298 10.0 17.0 0.00 0.00 0.00 38 995.8
20260504183403 74 278 9.0 15.0 0.00 0.00 0.00 36 995.6
20260504182905 74 306 7.0 15.0 0.00 0.00 0.00 42 995.7
20260504182405 74 294 6.0 12.0 0.00 0.00 0.00 42 995.7
20260504181904 73 232 5.0 12.0 0.00 0.00 0.00 47 995.7
20260504181604 72 273 5.0 11.0 0.00 0.00 0.00 45 995.6
20260504181434 72 250 5.0 9.0 0.00 0.00 0.00 45 995.7
20260504180401 71 294 5.0 11.0 0.00 0.00 0.00 41 995.6
20260504175901 72 255 6.0 13.0 0.00 0.00 0.00 42 995.5
20260504175401 72 266 7.0 13.0 0.00 0.00 0.00 42 995.7
20260504174902 71 266 8.0 16.0 0.00 0.00 0.00 43 995.6
20260504174402 71 232 10.0 16.0 0.00 0.00 0.00 46 995.7
20260504173902 71 297 10.0 15.0 0.00 0.00 0.00 45 995.6
20260504173408 71 294 11.0 15.0 0.00 0.00 0.00 44 995.6
20260504172902 71 272 12.0 16.0 0.00 0.00 0.00 42 995.5
20260504172406 72 303 11.0 17.0 0.00 0.00 0.00 43 995.5
20260504171902 73 312 11.0 17.0 0.00 0.00 0.00 43 995.4
20260504171401 73 302 11.0 17.0 0.00 0.00 0.00 40 995.5
20260504170903 74 296 10.0 17.0 0.00 0.00 0.00 41 995.4
20260504170621 74 301 8.0 14.0 0.00 0.00 0.00 40 995.2
20260504170434 74 302 8.0 17.0 0.00 0.00 0.00 39 995.3
20260504160437 71 279 7.0 12.0 0.00 0.00 0.00 39 995.5
20260504150903 70 252 5.0 12.0 0.00 0.00 0.00 43 995.7
20260504150403 70 299 5.0 12.0 0.00 0.00 0.00 42 995.8
20260504140905 67 232 6.0 11.0 0.00 0.00 0.00 43 996.0
20260504140401 66 237 6.0 12.0 0.00 0.00 0.00 43 996.1
20260504130401 60 304 4.0 7.0 0.00 0.00 0.00 50 996.7
20260504110500 50 162 1.0 2.0 0.00 0.00 0.00 60 997.4
20260504081829 46 300 0.0 0.0 0.00 0.00 0.00 74 999.8
20260504081330 46 300 0.0 0.0 0.00 0.00 0.00 74 999.8
20260504080833 46 300 0.0 0.0 0.00 0.00 0.00 74 999.9
20260504080329 46 300 0.0 0.0 0.00 0.00 0.00 74 999.9
20260504045802 53 300 1.0 2.0 0.00 0.00 0.00 59 1002.5
20260504045426 54 300 0.0 2.0 0.00 0.00 0.00 57 1002.5
20260504045317 54 300 0.0 2.0 0.00 0.00 0.00 58 1002.5
20260504044303 54 300 0.0 1.0 0.00 0.00 0.00 57 1002.5
20260504043803 55 300 0.0 1.0 0.00 0.00 0.00 56 1002.5
20260504043306 55 300 0.0 1.0 0.00 0.00 0.00 55 1002.6
20260504042803 55 300 0.0 2.0 0.00 0.00 0.00 55 1002.6
20260504042412 56 300 0.0 1.0 0.00 0.00 0.00 53 1002.6
20260504042317 56 300 0.0 2.0 0.00 0.00 0.00 54 1002.6
20260504041302 56 300 0.0 1.0 0.00 0.00 0.00 52 1002.6
20260504040803 57 300 0.0 1.0 0.00 0.00 0.00 50 1002.7
20260504040303 57 300 0.0 1.0 0.00 0.00 0.00 49 1002.7
20260504035807 57 300 0.0 1.0 0.00 0.00 0.00 49 1002.7
20260504035306 58 300 0.0 1.0 0.00 0.00 0.00 49 1002.8
20260504034801 58 300 0.0 2.0 0.00 0.00 0.00 48 1002.8
20260504034603 58 300 0.0 1.0 0.00 0.00 0.00 47 1002.8
20260504034539 59 300 0.0 1.0 0.00 0.00 0.00 46 1002.9
20260504034350 58 300 1.0 2.0 0.00 0.00 0.00 47 1002.8
20260504032801 59 300 0.0 1.0 0.00 0.00 0.00 46 1003.0
20260504032301 59 300 0.0 1.0 0.00 0.00 0.00 45 1003.0
20260504031801 59 300 1.0 1.0 0.00 0.00 0.00 45 1003.1
20260504031301 59 300 0.0 1.0 0.00 0.00 0.00 45 1003.1
20260504030802 60 300 0.0 2.0 0.00 0.00 0.00 44 1003.2
20260504030305 60 300 1.0 2.0 0.00 0.00 0.00 44 1003.2
20260504025801 60 300 0.0 2.0 0.00 0.00 0.00 44 1003.3
20260504025306 60 300 0.0 2.0 0.00 0.00 0.00 42 1003.3
20260504025021 61 300 0.0 1.0 0.00 0.00 0.00 41 1003.3
20260504025010 61 300 0.0 1.0 0.00 0.00 0.00 41 1003.2
20260504024842 61 300 0.0 1.0 0.00 0.00 0.00 41 1003.3
20260504023303 61 300 1.0 2.0 0.00 0.00 0.00 40 1003.2
20260504022800 62 300 1.0 2.0 0.00 0.00 0.00 40 1003.2
20260504022304 62 300 1.0 3.0 0.00 0.00 0.00 41 1003.1
20260504021801 62 300 2.0 4.0 0.00 0.00 0.00 41 1003.1
20260504021300 62 300 3.0 4.0 0.00 0.00 0.00 41 1003.0
20260504020804 62 300 4.0 4.0 0.00 0.00 0.00 41 1003.0
20260504020302 62 300 3.0 4.0 0.00 0.00 0.00 42 1003.0
20260504015803 62 300 2.0 4.0 0.00 0.00 0.00 42 1002.9
20260504015304 62 300 2.0 3.0 0.00 0.00 0.00 42 1002.9
20260504014808 62 300 2.0 3.0 0.00 0.00 0.00 44 1002.9
20260504014302 62 300 1.0 3.0 0.00 0.00 0.00 43 1002.8
20260504013805 63 300 1.0 2.0 0.00 0.00 0.00 41 1002.7
20260504013545 63 300 2.0 3.0 0.00 0.00 0.00 40 1002.6
20260504013336 63 300 1.0 2.0 0.00 0.00 0.00 40 1002.6
20260504012540 65 300 3.0 3.0 0.00 0.00 0.00 41 1002.6
20260504012336 64 300 3.0 3.0 0.00 0.00 0.00 43 1002.6
20260504011657 66 300 3.0 4.0 0.00 0.00 0.00 36 1002.6
20260504011411 65 300 3.0 4.0 0.00 0.00 0.00 39 1002.6
20260504010836 66 300 3.0 4.0 0.00 0.00 0.00 36 1002.6
20260504005801 66 300 3.0 4.0 0.00 0.00 0.00 36 1002.5
20260504005304 66 300 3.0 5.0 0.00 0.00 0.00 36 1002.4
20260504004800 67 296 4.0 5.0 0.00 0.00 0.00 37 1002.4
20260504004301 67 300 4.0 7.0 0.00 0.00 0.00 36 1002.4
20260504003803 67 306 5.0 7.0 0.00 0.00 0.00 36 1002.4
20260504003301 67 307 5.0 8.0 0.00 0.00 0.00 37 1002.4
20260504002801 67 306 5.0 8.0 0.00 0.00 0.00 37 1002.4
20260504002303 67 296 4.0 7.0 0.00 0.00 0.00 37 1002.4
20260504001801 68 294 4.0 7.0 0.00 0.00 0.00 39 1002.4
20260504001305 68 294 4.0 8.0 0.00 0.00 0.00 39 1002.3
20260504000800 68 299 4.0 8.0 0.00 0.00 0.00 38 1002.4
20260504000520 69 297 6.0 10.0 0.00 0.00 0.00 36 1002.4
20260504000334 68 281 5.0 8.0 0.00 0.00 0.00 39 1002.4
20260503235306 69 295 6.0 10.0 0.00 0.00 0.00 35 1002.3
20260503234801 69 292 5.0 9.0 0.00 0.00 0.00 36 1002.3
20260503234300 69 294 5.0 9.0 0.00 0.00 0.00 37 1002.3
20260503233800 69 296 6.0 9.0 0.00 0.00 0.00 36 1002.4
20260503233301 70 299 5.0 9.0 0.00 0.00 0.00 36 1002.4